{"data":{"norad_id":68233,"intl_designator":"2026-054B","name":"STARLINK-37132","alt_names":[],"object_type":"PAYLOAD","status":"ACTIVE","operator":null,"country":"US","launch_date":"2026-03-17","launch_site_code":"AFETR","launch_vehicle":null,"mission":null,"orbit_class":"UNKNOWN","rcs_meters":null,"size_class":null,"mass_kg":null,"dimensions":null,"purposes":["comms"],"wikipedia_slug":null,"has_3d_model":false,"image_url":null,"decayed_at":null,"tle_current":{"epoch":"2026-05-25T03:02:21.664896Z","epoch_age_seconds":57945,"freshness":"FRESH","line1":"1 68233U 26054B   26145.12663964  .00052349  00000+0  94150-3 0  9998","line2":"2 68233  53.1582 297.6441 0001329  82.5080 277.6080 15.49353973 10751","mean_motion":15.49353973,"eccentricity":0.0001329,"inclination_deg":53.1582,"raan_deg":297.6441,"arg_perigee_deg":82.508,"mean_anomaly_deg":277.608,"bstar":0.0009415,"rev_number":1075,"period_min":92.941963237216,"perigee_km":417.71146487258,"apogee_km":419.51804148858,"semimajor_km":6796.7517531806,"source":"CELESTRAK","updated_at":"2026-05-25T13:38:21.882972Z"}}}